Torna al catalogo

ASNARO-2

AttivoScienzaSSO
NORAD 43152·PAYLOAD·🇯🇵 Japan

Lanciato Jan 17, 2018 da Uchinoura Space Center

Loading…

Prossimi Passaggi (prossime 24 ore)

TLE

AggiornatoSource: Space-Track

Epoca: Sep 14, 2026, 13:48 UTC

1 43152U 18007A   26257.57543260  .00006066  00000-0  26532-3 0  9994
2 43152  97.4000 263.1160 0001744  91.1907 268.9529 15.22431743481016

Traccia ASNARO-2 in tempo reale con AllMySat

Download on the App Store